RH
96 95 94 86 88 86 86 90 90 95 91 91 87 83 84 82 84 82 85 89 89 91 90 92 94 93 95 93 91 90 89 86 86 82 84 84 83 83
90 94 95 93 88 85 89 92 93 95 95 91 90 89 83 72 84 85 85 93 92 88 91 93 92 93 92 91 89 88 88 87 84 80 81 87 88 88
95 94 89 92 97 95 89 87 88 93 96 87 94 90 81 86 84 87 89 96 93 91 93 90 88 87 85 85 84 84 84 83 82 83 85 85 84 84
95 96 95 86 91 86 91 94 96 96 96 93 88 94 91 89 89 92 88 80 87 86 85 85 85 81 81 82 83 83 82 82 82 82 80 83 80 78
79 88 90 92 95 96 95 96 96 89 96 96 96 96 94 93 93 92 92 94 82 82 84 84 84 80 85 84 85 86 86 84 83 82 83 82 83 81
90 88 87 89 91 90 75 77 86 88 92 93 84 86 88 91 90 94 96 96 96 83 82 87 87 83 85 84 87 85 82 81 80 78 79 79 81 82
89 87 90 93 94 95 91 93 92 93 93 95 92 93 95 93 94 91 97 97 96 91 90 94 97 95 92 88 85 81 80 76 74 73 74 74 75 75
89 87 86 90 89 92 89 88 90 95 95 98 98 96 95 94 92 95 91 94 96 93 96 95 96 97 95 93 79 81 77 72 68 69 69 71 71 71
93 90 85 80 88 89 91 88 88 87 87 97 95 98 97 94 92 96 97 95 94 96 96 98 96 95 94 82 80 75 72 68 68 68 67 67 68 69
94 92 92 91 84 84 93 94 92 95 93 90 95 96 94 92 92 92 95 94 93 92 93 98 96 95 94 94 69 70 68 65 67 68 67 67 68 68
96 93 89 90 83 79 93 97 98 98 85 81 82 79 74 74 80 89 96 95 94 97 97 95 96 98 96 96 88 76 69 64 70 71 70 68 68 70
93 93 85 88 78 74 93 96 99 96 98 96 93 86 85 84 81 90 94 98 99 98 98 97 92 92 96 91 94 95 90 68 75 74 71 72 70 89
95 96 96 82 78 74 76 95 92 91 87 93 94 95 94 93 92 95 94 96 98 98 89 95 93 97 98 98 94 95 93 89 95 90 79 74 71 76
92 94 94 85 80 74 76 78 71 76 88 92 94 94 96 98 97 96 94 95 94 92 84 90 98 98 99 97 94 93 91 93 94 90 89 80 80 79
94 90 84 82 81 77 71 70 64 85 88 92 94 98 97 97 98 96 93 94 97 94 89 95 96 98 99 99 99 97 94 95 94 96 94 94 94 94
90 92 88 85 86 85 82 79 80 86 88 91 95 97 97 99 98 99 98 99 98 98 92 97 96 98 100 99 98 96 98 100 97 93 92 96 94 94
93 96 96 98 98 96 93 92 87 88 90 88 96 96 94 97 98 98 98 99 98 98 97 96 95 96 97 97 100 96 96 99 97 96 98 90 92 90
92 98 96 95 95 93 90 87 85 80 86 90 93 94 96 97 98 99 98 98 98 98 98 98 97 94 92 91 90 97 98 99 97 96 98 94 93 85
95 95 93 93 91 91 87 85 85 81 86 90 91 92 96 97 92 98 98 98 98 98 98 98 98 97 98 98 91 70 97 97 98 98 97 98 96 91
93 93 94 92 93 93 90 90 88 87 89 88 91 92 95 96 98 98 97 98 98 98 98 97 98 97 98 98 94 93 75 98 99 100 98 96 90 83
93 94 92 93 92 90 88 88 88 89 89 91 91 92 94 95 97 96 95 86 90 98 97 94 93 70 98 97 97 95 92 73 80 98 97 100 99 98
94 93 91 92 92 92 93 91 91 90 91 92 91 92 93 93 94 94 93 97 97 97 96 96 93 98 98 98 98 98 96 93 77 72 69 78 98 98
95 96 95 93 93 95 97 98 97 95 92 92 91 93 93 95 92 91 92 94 96 97 96 96 95 96 98 98 97 99 97 96 97 94 92 66 63 61
Wind_Speed
5 5 5 5 4 4 4 3 3 3 3 3 3 3 4 5 7 6 6 14 14 15 16 15 15 15 15 14 14 14 14 14 14 16 17 18 18 19
4 5 4 4 5 3 3 3 4 4 3 2 2 2 5 4 7 6 7 12 15 16 16 15 14 14 14 14 14 15 15 13 13 14 15 17 17 18
5 6 7 6 4 5 5 3 3 1 2 2 1 2 2 4 4 5 5 5 6 12 13 12 11 11 13 13 13 14 14 15 15 14 16 15 16 15
5 5 5 4 5 5 4 4 4 4 2 1 2 3 3 3 2 4 4 5 5 9 12 12 10 11 12 12 13 14 14 14 15 15 15 16 16 17
6 5 5 4 4 3 3 4 3 2 2 1 2 1 2 2 2 3 3 4 4 8 10 11 10 9 10 11 12 13 13 14 14 14 14 14 16 16
5 4 4 3 4 4 5 5 3 3 2 2 3 3 2 1 2 2 3 3 4 4 7 6 6 7 9 9 11 11 12 13 14 15 15 15 16 17
4 3 2 3 5 3 2 3 3 2 2 2 2 1 1 2 2 3 2 3 2 3 2 2 1 2 3 5 6 8 9 12 15 15 15 15 15 16
4 3 2 2 3 2 4 4 4 2 1 2 1 0 1 1 2 1 2 2 2 2 3 3 0 1 1 2 4 8 9 13 13 13 13 13 15 17
5 3 2 1 3 3 2 2 3 4 3 1 1 1 1 1 1 1 0 2 3 3 2 2 3 3 2 4 8 9 11 9 11 12 12 13 15 15
5 4 3 4 3 4 3 3 1 1 1 2 3 2 2 2 0 2 1 3 2 0 3 1 3 2 4 3 3 6 9 12 12 10 12 13 14 15
5 6 5 4 7 7 4 4 4 4 2 4 5 6 5 3 3 2 1 2 2 2 4 3 3 4 3 3 3 6 10 13 11 13 13 13 15 15
5 6 11 7 8 7 5 5 5 5 5 3 1 3 3 3 4 2 2 2 0 3 3 3 4 5 4 2 3 2 4 12 10 11 14 14 15 4
4 4 4 11 10 9 8 5 5 4 5 4 2 1 0 0 1 1 0 3 2 1 1 3 1 2 0 4 3 2 3 4 3 5 12 15 15 11
6 4 5 12 12 10 7 7 6 4 3 3 3 3 2 2 2 1 2 2 2 4 1 3 2 2 1 3 4 3 3 3 2 5 5 9 12 12
5 7 11 11 14 9 10 9 7 3 3 3 3 3 3 3 2 0 2 1 2 3 3 3 3 2 2 3 4 3 5 3 3 3 5 5 4 4
9 6 7 9 11 8 7 6 4 4 4 3 3 2 2 2 2 2 1 1 1 2 1 3 4 4 2 5 5 5 3 3 3 3 5 4 4 4
5 3 3 3 4 4 4 4 4 4 4 3 2 3 3 3 2 2 1 1 2 1 2 2 2 4 5 5 3 4 3 2 3 3 3 7 5 5
5 4 6 7 8 7 7 6 6 9 6 5 4 4 4 3 3 2 1 2 2 1 1 2 2 3 4 3 9 3 2 2 3 3 3 5 5 6
5 6 7 7 8 7 7 7 8 8 7 6 6 5 4 3 6 3 2 2 2 2 2 1 0 3 1 2 3 4 3 3 2 3 3 3 6 8
6 8 7 7 7 7 7 7 7 6 7 7 6 6 5 4 3 3 4 3 3 2 1 1 0 2 2 4 2 4 10 3 2 3 3 3 7 15
6 6 6 6 7 8 8 8 8 8 8 7 7 7 6 5 4 4 5 9 7 2 3 2 3 8 1 2 2 3 4 10 6 4 3 3 3 3
6 7 8 7 8 8 8 8 7 8 8 8 7 7 7 6 6 6 6 3 2 3 3 1 2 1 2 2 3 4 4 4 10 8 5 3 2 4
7 7 7 8 8 8 8 8 8 8 8 8 8 7 7 7 6 6 5 4 3 2 3 2 1 1 1 2 2 3 4 4 2 4 3 10 12 8
Wind_Direction
276 284 280 274 259 266 258 228 243 297 295 307 301 343 5 24 7 32 34 42 55 57 55 54 52 47 39 28 15 4 351 334 326 322 317 312 307 304
346 334 343 318 302 297 265 249 227 229 265 214 276 329 31 44 23 39 43 62 55 55 59 53 48 51 47 39 32 24 15 7 354 342 341 352 347 338
340 350 344 343 0 0 355 343 343 271 236 301 285 4 63 41 28 45 61 75 54 57 54 47 50 55 48 42 38 29 26 24 19 19 16 10 3 355
324 330 326 345 349 353 359 0 5 360 325 296 346 2 21 359 3 58 55 59 57 43 51 49 47 50 50 49 45 41 37 34 29 26 22 19 11 5
312 305 304 326 344 343 343 340 328 341 346 31 295 298 280 12 8 34 53 51 54 43 53 48 42 48 58 53 48 43 38 33 25 18 14 7 2 358
295 298 322 11 343 328 321 317 307 299 288 278 276 270 211 87 79 37 347 27 22 18 26 28 63 53 56 66 71 53 27 22 14 4 359 359 355 349
314 337 39 33 3 30 330 338 321 297 291 272 266 311 42 23 26 357 308 330 92 15 342 321 332 82 63 34 87 62 26 7 1 359 355 353 351 348
293 314 316 40 351 105 93 63 30 333 325 322 327 298 96 36 24 0 324 335 291 52 344 296 28 79 46 15 25 32 13 356 360 359 358 359 354 352
287 286 294 2 334 320 173 100 51 35 46 198 245 241 166 102 315 319 341 260 253 2 352 274 11 334 22 339 315 1 19 11 1 355 355 355 353 355
258 250 254 281 289 302 272 234 181 51 38 62 108 145 109 103 155 233 234 281 288 101 5 347 356 308 334 306 9 29 23 4 355 355 354 351 349 351
254 236 233 240 258 268 283 255 216 221 196 151 154 158 138 98 68 117 15 50 332 16 21 27 342 313 333 312 39 43 25 4 2 360 349 341 337 340
263 249 236 210 239 247 238 235 229 226 197 193 178 112 71 60 58 68 146 124 92 357 359 52 353 358 331 310 327 5 12 359 350 359 355 346 337 327
237 249 234 233 231 233 236 219 224 184 210 186 170 151 142 330 9 26 96 136 138 241 274 88 329 1 269 302 304 306 16 344 326 337 340 336 338 338
232 228 242 232 227 230 226 235 226 201 171 174 182 209 221 238 247 231 240 250 231 194 170 129 178 137 117 304 274 315 340 321 329 330 327 330 333 337
212 227 242 239 222 228 224 231 226 179 191 201 211 206 192 188 162 355 329 273 294 258 203 162 156 161 189 241 287 305 329 313 319 319 320 321 313 316
216 224 226 223 208 207 223 233 200 204 198 210 211 193 137 136 182 150 135 25 80 296 320 178 180 162 229 242 252 279 264 292 317 314 310 298 296 285
195 168 193 197 206 219 225 227 216 218 217 196 182 183 186 158 183 145 143 110 146 190 299 312 264 220 216 189 250 241 251 273 276 291 346 324 302 284
194 188 211 210 218 217 216 222 214 222 215 198 199 189 184 181 182 168 127 146 169 208 219 269 317 358 353 268 212 258 308 233 268 282 279 292 290 301
217 211 220 210 219 215 216 213 221 215 200 203 200 196 176 177 199 179 176 160 209 193 223 220 117 109 27 282 289 247 188 264 286 304 253 269 285 291
210 226 223 219 216 215 218 218 222 206 200 202 197 189 185 173 169 181 184 171 176 191 262 246 125 200 196 205 279 265 249 242 213 262 291 279 271 283
227 226 216 212 219 221 225 220 215 211 201 189 192 183 184 176 191 191 190 199 199 190 201 197 224 261 209 48 348 286 287 301 280 208 263 282 271 292
241 233 232 227 226 229 227 221 213 211 201 194 190 183 178 179 190 188 191 170 195 165 190 187 264 11 58 178 250 270 294 304 311 312 300 263 263 305
250 241 234 231 230 226 221 214 212 207 201 191 186 177 170 181 181 184 185 184 160 165 161 200 197 71 267 202 242 274 292 293 297 325 312 334 332 331